Regional Weather Roundup
Issued by NWS

Home | Current Version | Previous Version | Text Only | Print | Product List | Glossary Off
Versions: 1 2 3 4 5 6 7 8 9 10 11 12 13 14 15 16 17 18 19 20 21 22 23 24 25 26 27 28 29 30 31 32 33 34 35 36 37 38 39 40 41 42 43 44 45 46 47 48 49 50

000
ASUS43 KIND 281809
RWRIN

WEATHER ROUNDUP FOR INDIANA
NATIONAL WEATHER SERVICE INDIANAPOLIS IN
200 PM EDT SAT MAR 28 2015

NOTE: "FAIR" INDICATES FEW OR NO CLOUDS BELOW 12,000 FEET WITH NO
SIGNIFICANT WEATHER AND/OR OBSTRUCTIONS TO VISIBILITY.

* - STATION DOES NOT REPORT WEATHER SUCH AS PRECIPITATION OR FOG.

+ - STATION NOT QUALITY CONTROLLED BY THE NATIONAL WEATHER SERVICE.
    USE DATA WITH CAUTION...ESPECIALLY DEWPOINT AND RELATIVE
    HUMIDITY OBSERVATIONS.

INZ001>003-010>013-019-020-281900-
NORTHWEST INDIANA

CITY           SKY/WX    TMP DP  RH WIND       PRES   REMARKS
GARY /AIRPORT/ SUNNY     32   7  34 NE14      30.36F WCI  22
KNOX *+          N/A     32 -17  11 E6        30.32F WCI  26
LA PORTE +     SUNNY     34   9  34 NE3       30.32F
6HR MIN TEMP:  15; 6HR MAX TEMP:  34;

MICHIGAN CITY+ SUNNY     30   7  37 NW7       30.34F WCI  23
MONTICELLO +   SUNNY     32  11  41 CALM      30.32F
6HR MIN TEMP:  18; 6HR MAX TEMP:  32;

RENSSELAER +   SUNNY     32  12  43 E6        30.33F WCI  26
VALPARAISO     SUNNY     32   4  30 SW5       30.32F WCI  27
6HR MIN TEMP:  14; 6HR MAX TEMP:  33;


$$

LMZ046-743>745-281900-
SOUTHERN LAKE MICHIGAN

STATION/POSITION TIME  TEMP WIND        PRES
                       AIR  DIR/SP/G
                 (UTC) (F)  (DEG/KT/KT) (MB)
BURNS HARBOR     1800   24   20/  7/ 11 1028.4R
MICHIGAN CITY    1800   24  350/ 11/ 13   N/A

$$

INZ004-005-014>016-021>024-281900-
NORTH CENTRAL INDIANA

CITY           SKY/WX    TMP DP  RH WIND       PRES   REMARKS
ELKHART        SUNNY     32   3  29 N6        30.33S WCI  26
GOSHEN         SUNNY     32   6  33 VRB6      30.31S WCI  26
6HR MIN TEMP:  14; 6HR MAX TEMP:  32;

LOGANSPORT +   SUNNY     32  10  40 S5        30.33S WCI  27
PERU/GRISSOM   SUNNY     31   8  38 VRB2      30.31S
6HR MIN TEMP:  17; 6HR MAX TEMP:  31;

ROCHESTER +    SUNNY     34   9  35 SE3       30.32F
SOUTH BEND     SUNNY     33   6  32 VRB3      30.33S
6HR MIN TEMP:  13; 6HR MAX TEMP:  33;

WARSAW +       SUNNY     32  10  40 N6        30.31F WCI  26

$$

INZ006>009-017-018-025>027-281900-
NORTHEAST INDIANA

CITY           SKY/WX    TMP DP  RH WIND       PRES   REMARKS
ANGOLA *+      SUNNY     30   9  40 VRB5      30.29F WCI  25
AUBURN +       SUNNY     32   9  37 N3        30.30F
FORT WAYNE     MOSUNNY   30   7  37 N7        30.31F WCI  23
6HR MIN TEMP:  17; 6HR MAX TEMP:  31;

HUNTINGTON +   SUNNY     30   3  32 NE3       30.32S
6HR MIN TEMP:  17; 6HR MAX TEMP:  31;


$$

INZ028-029-035-036-043>045-051>053-281900-
WEST CENTRAL INDIANA

CITY           SKY/WX    TMP DP  RH WIND       PRES   REMARKS
CRAWFORDSVL +  SUNNY     32   9  37 N5        30.32S WCI  27
6HR MIN TEMP:  16; 6HR MAX TEMP:  32;

GREENCASTLE +  SUNNY     32  10  40 E7        30.31F WCI  26
LAFAYETTE      SUNNY     32   8  36 CALM      30.33F
6HR MIN TEMP:  17; 6HR MAX TEMP:  33;

TERRE HAUTE    SUNNY     35  15  44 CALM      30.33S
6HR MIN TEMP:  20; 6HR MAX TEMP:  35;


$$

INZ030>032-037>040-046>048-054>057-064-065-281900-
CENTRAL INDIANA

CITY           SKY/WX    TMP DP  RH WIND       PRES   REMARKS
ANDERSON       SUNNY     28   9  43 N6        30.32S WCI  22
CP ATTERBURY + SUNNY     34  14  44 N5        30.32F WCI  30
COLUMBUS       SUNNY     32  12  43 NE6       30.32F WCI  26
FISHERS *+     SUNNY     32  18  55 CALM      30.31F
FRANKFORT +    SUNNY     32  15  50 N7        30.33F WCI  26
6HR MIN TEMP:  19; 6HR MAX TEMP:  33;

GREENWOOD *+   SUNNY     32   9  37 NE8       30.31F WCI  25
INDIANAPOLIS   MOSUNNY   34  10  37 VRB5      30.30S WCI  30
6HR MIN TEMP:  19; 6HR MAX TEMP:  34;

-EAGLE CREEK   SUNNY     32  11  41 W6        30.30F WCI  26
6HR MIN TEMP:  18; 6HR MAX TEMP:  32;

KOKOMO *+        N/A     34  12  40 N6        30.32S WCI  29
6HR MIN TEMP:  18; 6HR MAX TEMP:  34;

MARION +       SUNNY     30  10  43 NE3       30.32S
MT COMFORT *+  SUNNY     32   3  29 CALM      30.31S
SHELBYVILLE    SUNNY     34  13  41 CALM      30.30S
6HR MIN TEMP:  21; 6HR MAX TEMP:  34;

ZIONSVILLE +   SUNNY     32  12  44 CALM      30.31F
6HR MIN TEMP:  19; 6HR MAX TEMP:  32;


$$

INZ033-034-041-042-049-050-058-059-281900-
EAST CENTRAL INDIANA

CITY           SKY/WX    TMP DP  RH WIND       PRES   REMARKS
MUNCIE         SUNNY     30  11  45 NE10      30.30F WCI  21
6HR MIN TEMP:  18; 6HR MAX TEMP:  30;


$$

INZ060-061-067>069-081>083-085>088-281900-
SOUTHWEST INDIANA

CITY           SKY/WX    TMP DP  RH WIND       PRES   REMARKS
EVANSVILLE     SUNNY     37  16  42 SE3       30.34S
6HR MIN TEMP:  25; 6HR MAX TEMP:  38;

HUNTINGBURG *+ SUNNY     36  16  44 NE6       30.33S
6HR MIN TEMP:  21; 6HR MAX TEMP:  36;

WASHINGTON +   SUNNY     33  13  43 CALM      30.33F
6HR MIN TEMP:  22; 6HR MAX TEMP:  34;


$$

INZ062-063-066-070>080-084-089>092-281900-
SOUTH CENTRAL AND SOUTHEAST INDIANA

CITY           SKY/WX    TMP DP  RH WIND       PRES   REMARKS
BEDFORD +      SUNNY     36  10  35 CALM      30.30F
BLOOMINGTON    SUNNY     36  12  37 VRB5      30.30S
6HR MIN TEMP:  18; 6HR MAX TEMP:  37;

NORTH VERNON + MOSUNNY   34  14  44 NE5       30.31S WCI  30
SEYMOUR +      SUNNY     36  18  48 N9G16     30.32S

$$




USA.gov is the U.S. government's official web portal to all federal, state and local government web resources and services.